Change the Weather History Date:

Saturday, November 12, 2011

  Actual Average Record
Temperature  
Mean Temperature 34 °F 31 °F  
Max Temperature 44 °F 43 °F 68 °F (1999)
Min Temperature 23 °F 19 °F -23 °F (2014)
Degree Days  
Heating Degree Days 31 34  
Month to date heating degree days 463 378  
Since 1 July heating degree days 1493 1621  
Cooling Degree Days 0 0  
Month to date cooling degree days 0 0  
Year to date cooling degree days 126 67  
Moisture  
Dew Point 20 °F    
Average Humidity 55    
Maximum Humidity 81    
Minimum Humidity 29    
Precipitation  
Precipitation 0.03 in 0.02 in 0.42 in (1993)
Month to date precipitation 0.23 0.25  
Year to date precipitation 10.18 10.31  
Sea Level Pressure  
Sea Level Pressure 29.51 in    
Wind  
Wind Speed 26 mph (WSW)    
Max Wind Speed 54 mph    
Max Gust Speed 76 mph    
Visibility 6 miles    
Events Fog , Snow    
T = Trace of Precipitation, MM = Missing Value Source: NWS Daily Summary

Daily Weather History Graph

Daily Weather History Graph

Search for Another Location

Airport or City:

Trip Planner

Search our weather history database for the weather conditions in past years. The results will help you decide how hot, cold, wet, or windy it might be!

Date:

Astronomy

Nov. 12, 2011 Rise Set
Actual Time 6:47 AM MST 4:46 PM MST
Civil Twilight 6:17 AM MST 5:15 PM MST
Nautical Twilight 5:44 AM MST 5:48 PM MST
Astronomical Twilight 5:11 AM MST 6:21 PM MST
Moon 6:03 PM MST (11/12) 8:32 AM MST (11/12)
Length of Visible Light 10h 57m
Length of Day
9h 59m
Waning Gibbous, 97% of the Moon is Illuminated
Nov 12
Waning Gibbous
Nov 18
Last Quarter
Nov 24
New
Dec 2
First Quarter
Dec 10
Full

Hourly Weather History & Observations

Time (MST) Temp. Windchill Dew Point Humidity Pressure Visibility Wind Dir Wind Speed Gust Speed Precip Events Conditions
12:53 AM 33.1 °F 23.4 °F 10.0 °F 38% 29.56 in 10.0 mi WSW 13.8 mph - N/A   Clear
1:53 AM 33.1 °F 22.6 °F 12.0 °F 42% 29.55 in 10.0 mi West 16.1 mph - N/A   Partly Cloudy
2:53 AM 37.9 °F 26.1 °F 9.0 °F 30% 29.50 in 10.0 mi WSW 27.6 mph 38.0 mph N/A   Clear
3:53 AM 36.0 °F 24.2 °F 12.9 °F 39% 29.50 in 10.0 mi West 24.2 mph 39.1 mph N/A   Clear
4:53 AM 35.6 °F 23.0 °F 15.8 °F 44% 29.62 in 10.0 mi WSW 27.6 mph 35.7 mph N/A   Clear
5:53 AM 35.1 °F 25.5 °F 14.0 °F 42% 29.51 in 10.0 mi SSW 15.0 mph 21.9 mph N/A   Partly Cloudy
6:53 AM 36.0 °F 29.0 °F 12.9 °F 39% 29.55 in 10.0 mi South 9.2 mph - N/A   Scattered Clouds
7:53 AM 39.0 °F 31.0 °F 16.0 °F 39% 29.54 in 10.0 mi South 13.8 mph 28.8 mph N/A   Mostly Cloudy
8:53 AM 41.0 °F 33.5 °F 19.0 °F 41% 29.53 in 10.0 mi SSW 13.8 mph 20.7 mph N/A   Overcast
9:53 AM 39.9 °F 29.5 °F 23.0 °F 51% 29.52 in 10.0 mi WSW 24.2 mph 29.9 mph N/A   Clear
10:53 AM 44.1 °F 34.4 °F 25.0 °F 47% 29.52 in 10.0 mi WSW 27.6 mph 40.3 mph N/A   Clear
11:53 AM 39.9 °F 28.8 °F 27.0 °F 60% 29.51 in 10.0 mi SW 27.6 mph 41.4 mph N/A   Clear
12:53 PM 43.0 °F 33.5 °F 28.0 °F 56% 29.47 in 10.0 mi SW 24.2 mph 35.7 mph N/A   Clear
1:53 PM 39.9 °F 27.6 °F 28.0 °F 63% 29.42 in 10.0 mi SW 34.5 mph 44.9 mph N/A   Clear
2:53 PM 37.0 °F 24.5 °F 26.1 °F 65% 29.39 in 10.0 mi SW 29.9 mph 39.1 mph N/A   Clear
3:53 PM 36.0 °F 23.2 °F 28.0 °F 73% 29.42 in 10.0 mi SW 28.8 mph 39.1 mph N/A   Mostly Cloudy
4:53 PM 35.1 °F 21.8 °F 26.1 °F 70% 29.43 in 10.0 mi SW 29.9 mph 38.0 mph N/A   Overcast
5:53 PM 33.1 °F 20.6 °F 27.0 °F 78% 29.45 in 10.0 mi WSW 23.0 mph 28.8 mph N/A   Overcast
6:35 PM 30.2 °F 18.5 °F 28.4 °F 93% 29.50 in 2.5 mi WSW 17.3 mph 25.3 mph 0.00 in Snow Light Snow
6:45 PM 30.2 °F 17.8 °F 28.4 °F 93% 29.51 in 1.0 mi WSW 19.6 mph - 0.00 in Snow Light Snow
6:49 PM 30.2 °F 16.8 °F 28.4 °F 93% 29.51 in 0.8 mi West 23.0 mph 33.4 mph 0.00 in Snow Light Snow
6:53 PM 30.0 °F - 28.9 °F 96% 29.47 in 0.2 mi North - - 0.00 in Fog , Snow Heavy Snow
7:02 PM 28.4 °F 14.7 °F 26.6 °F 93% 29.52 in 0.2 mi West 21.9 mph - 0.01 in Fog , Snow Snow
7:07 PM 26.6 °F 11.4 °F 26.6 °F 100% 29.52 in 0.8 mi West 25.3 mph 33.4 mph 0.01 in Snow Light Snow
7:11 PM 26.6 °F 11.1 °F 24.8 °F 93% 29.53 in 2.0 mi West 26.5 mph 33.4 mph 0.01 in Snow Light Snow
7:13 PM 26.6 °F 11.1 °F 24.8 °F 93% 29.53 in 3.0 mi West 26.5 mph 33.4 mph 0.01 in Snow Light Snow
7:26 PM 26.6 °F 8.7 °F 23.0 °F 86% 29.54 in 2.5 mi WNW 38.0 mph 48.3 mph 0.01 in   Overcast
7:33 PM 24.8 °F 6.2 °F 21.2 °F 86% 29.53 in 0.8 mi WNW 38.0 mph 48.3 mph 0.01 in Snow Light Snow
7:45 PM 24.8 °F 8.4 °F 21.2 °F 86% 29.53 in 2.0 mi WNW 27.6 mph 36.8 mph 0.01 in Snow Light Snow
7:53 PM 24.1 °F 6.9 °F 19.9 °F 84% 29.51 in 2.5 mi WNW 29.9 mph 36.8 mph 0.01 in Snow Light Snow
8:11 PM 23.0 °F 6.3 °F 19.4 °F 86% 29.54 in 6.0 mi West 26.5 mph 33.4 mph 0.00 in Snow Light Snow
8:53 PM 23.0 °F 4.6 °F 14.0 °F 68% 29.48 in 10.0 mi West 33.4 mph 42.6 mph 0.00 in   Scattered Clouds
9:53 PM 25.0 °F 8.4 °F 10.0 °F 53% 29.52 in 10.0 mi West 28.8 mph 42.6 mph N/A   Overcast
10:28 PM 24.8 °F 5.5 °F 15.8 °F 69% 29.55 in 2.5 mi West 41.4 mph 55.2 mph 0.00 in   Partly Cloudy
10:34 PM 24.8 °F - 15.8 °F 69% 29.53 in 1.0 mi North - - 0.00 in Snow Blowing Snow
10:37 PM 24.8 °F - 17.6 °F 74% 29.54 in 0.5 mi North - - 0.00 in Snow Snow
10:53 PM 26.1 °F 6.7 °F 17.1 °F 69% 29.45 in 0.2 mi West 44.9 mph 64.4 mph 0.01 in Snow Heavy Snow
11:16 PM 28.4 °F 10.2 °F 15.8 °F 59% 29.52 in 1.0 mi West 43.7 mph 59.8 mph 0.00 in   Unknown
11:20 PM 28.4 °F 10.2 °F 14.0 °F 55% 29.52 in 2.0 mi West 43.7 mph 66.7 mph 0.00 in   Partly Cloudy
11:27 PM 26.6 °F 6.1 °F 15.8 °F 64% 29.51 in 1.0 mi West 54.1 mph 65.6 mph 0.01 in   Unknown
11:36 PM 28.4 °F 9.3 °F 12.2 °F 51% 29.51 in 2.0 mi West 49.5 mph 65.6 mph 0.01 in   Partly Cloudy
11:43 PM 30.2 °F 12.0 °F 12.2 °F 47% 29.51 in 6.0 mi West 48.3 mph 65.6 mph 0.01 in   Partly Cloudy
11:53 PM 30.0 °F 11.6 °F 10.0 °F 43% 29.43 in 10.0 mi West 49.5 mph 67.9 mph 0.01 in   Clear